SCP
0 0 -0 0 0 0 0 0 0 0 0 0 0 0 0 0 0 0 0 0 0 0 0 0 0 0 0 0 0 0 0 0 0 0 0 0 0 0 0 0 0 0 0
0 0 0 0 -0 -0 0 0 0 0 0 0 0 0 0 0 0 0 0 0 0 0 0 0 0 0 0 0 0 0 0 0 0 0 0 0 0 0 0 0 0 0 0
0 0 0 0 -0 -0 -0 -0 -0 0 0 0 0 0 0 0 0 0 0 0 0 0 0 0 0 0 0 0 0 0 0 0 0 0 0 0 0 0 0 0 0 0 0
0 0 0 0 0 0 0 0 0 -0 -0 -0 0 -0 -0 -0 -0 0 0 -0 -0 0 0 0 0 0 0 0 0 0 0 0 0 0 0 0 0 0 0 0 0 0 0
0 0 0 0 0 0 0 0 0 0 0 -0 0 0 0 0 0 0 0 0 0 0 0 0 0 0 0 0 0 0 0 0 0 0 0 0 0 0 0 0 0 0 0
0 0 0 0 0 0 0 0 0 0 0 0 0 -0 -0 -0 -0 -0 -0 -0 0 0 0 0 0 0 0 0 0 0 0 0 0 0 0 0 0 0 0 0 0 0 0
0 0 0 0 0 0 0 -0 -0 -0 0 0 0 -0 -0 -0 -0 -0 -0 0 0 0 0 0 0 0 0 0 0 0 0 0 0 -0 -0 0 0 -0 -0 0 0 0 0
0 0 0 0 0 0 0 0 0 0 0 0 0 -0 -0 -0 -0 -0 -0 0 0 0 0 0 0 0 0 0 0 0 0 0 -0 -0 -0 -0 0 -0 -0 0 -0 0 0
0 0 0 0 0 0 0 0 0 0 0 0 0 0 0 0 -0 -0 -0 0 0 -0 0 0 0 0 0 0 0 0 0 0 -0 -0 -0 -0 -0 -0 -0 -0 0 0 0
0 0 0 0 0 0 0 -0 -0 -0 0 0 0 0 0 0 0 -0 0 0 0 0 0 0 0 0 0 0 0 0 0 -0 0 -0 -0 -0 -0 -0 -0 -0 0 0 0
0 0 0 0 0 0 0 -0 -0 -0 -0 -0 -0 -0 -0 0 0 0 -0 0 0 0 0 0 0 0 0 0 0 0 -0 -0 -0 -0 0 0 0 0 0 0 0 0 0
0 0 0 0 0 0 0 0 0 -0 -0 -0 -0 -0 -0 -0 -0 -0 -0 -0 0 0 0 0 0 0 0 0 0 0 -0 0 0 0 0 0 0 0 0 0 0 0 0
0 0 0 0 0 0 0 0 0 0 0 -0 -0 -0 -0 -0 -0 -0 -0 0 0 0 0 0 0 0 0 0 0 0 0 0 0 0 0 0 0 0 0 0 0 0 0
0 0 0 0 0 0 0 0 0 0 0 0 0 0 -0 -0 -0 -0 0 0 0 0 0 0 0 0 0 0 0 0 0 0 0 0 0 0 0 0 0 0 0 0 0
0 0 0 0 0 0 0 0 0 0 0 0 0 0 0 0 0 0 0 0 0 0 0 0 0 0 0 0 0 0 0 0 0 0 0 0 0 0 0 0 0 0 0
0 0 0 0 0 0 0 0 0 0 0 0 0 0 0 0 0 0 0 0 0 0 0 0 0 0 0 0 0 0 0 0 0 0 0 0 0 0 0 0 0 0 0
0 0 0 0 0 0 0 0 0 0 0 0 0 0 0 0 0 0 0 0 0 0 0 0 0 0 0 0 0 0 0 0 0 0 0 0 0 0 0 0 0 0 0
0 0 0 0 0 0 0 0 0 0 0 0 0 0 0 0 0 0 0 0 0 0 0 0 0 0 0 0 0 0 0 0 0 0 0 0 0 0 0 0 0 0 0
0 0 0 0 0 0 0 0 0 0 0 0 0 0 0 0 0 0 0 0 0 0 0 0 0 0 0 0 0 0 0 0 0 0 0 0 0 0 0 0 0 0 0
0 0 0 0 0 0 0 0 0 0 0 0 0 0 0 0 0 0 0 0 0 0 0 0 0 0 0 0 0 0 0 0 0 0 0 0 0 0 0 0 0 0 0
0 0 0 0 0 0 0 0 0 0 0 0 0 0 0 0 0 0 0 0 0 0 0 0 0 0 0 0 0 0 0 0 0 0 0 0 0 0 0 0 0 0 0
0 0 0 0 0 0 0 0 0 0 0 0 0 0 0 0 0 0 0 0 0 0 0 0 0 0 0 0 0 0 0 0 0 0 0 0 0 0 0 0 0 0 0
0 0 0 0 0 0 0 0 0 0 0 0 0 0 0 0 0 0 0 0 0 0 0 0 0 0 0 0 0 0 0 0 0 0 0 0 0 0 0 0 0 0 0
0 0 0 0 0 0 0 0 0 0 0 0 0 0 0 0 0 0 0 0 0 0 0 0 0 0 0 0 0 0 0 0 0 0 0 0 0 0 0 0 0 0 0
0 0 0 0 0 0 0 0 0 0 0 0 0 0 0 0 0 0 0 0 0 0 0 0 0 0 0 0 0 0 0 0 0 0 0 0 0 0 0 0 0 0 0
0 0 0 0 0 0 0 0 0 0 0 0 0 0 0 0 0 0 0 0 0 0 0 0 0 0 0 0 0 0 0 0 0 0 0 0 0 0 0 0 0 0 0
Wind_Speed_500mb
13 12 12 11 7 3 4 7 9 12 14 29 21 11 6 23 38 36 29 31 30 35 22 17 12 21 33 29 25 17 16 20 16 15 14 16 17 12 4 6 6 8 11
14 15 14 13 9 7 2 5 11 15 16 25 29 23 17 26 26 36 36 33 14 16 20 20 14 21 15 22 18 14 14 16 16 16 21 24 21 15 13 11 10 9 13
14 16 17 19 17 12 6 4 11 17 19 20 27 29 24 29 29 26 20 18 31 26 21 19 17 21 19 19 8 9 14 12 12 10 11 21 21 20 17 17 13 11 13
12 15 16 21 19 17 14 11 14 19 20 21 25 25 26 25 22 18 17 17 17 18 21 20 15 11 12 10 11 12 12 16 15 14 13 19 23 25 24 18 15 14 12
12 15 15 20 23 23 22 21 24 22 23 25 25 25 23 22 20 17 17 16 14 13 15 15 14 11 13 10 6 6 8 12 15 15 16 21 26 28 26 26 20 15 13
11 12 16 19 24 24 26 24 25 26 27 26 26 24 22 20 15 13 12 16 18 17 13 14 13 12 11 7 6 7 10 11 14 15 18 22 25 29 26 25 21 20 14
10 9 12 15 24 24 24 26 27 26 28 29 28 26 24 19 17 22 21 16 15 13 10 9 7 8 8 5 7 9 11 12 13 14 14 17 20 19 23 25 25 14 9
8 10 10 13 13 21 22 22 22 24 25 25 23 25 24 21 23 19 16 16 14 11 9 7 5 6 8 7 10 12 13 14 14 14 19 20 23 25 24 20 19 18 17
7 7 8 9 11 13 16 17 18 19 17 19 20 19 18 19 15 11 16 16 15 12 7 6 10 13 13 13 11 12 12 14 18 22 24 23 26 26 24 23 23 23 19
7 7 7 8 10 11 12 13 14 16 18 18 18 14 12 15 12 14 13 18 16 14 11 10 12 13 14 14 14 14 14 14 19 24 25 25 26 24 22 24 20 19 14
6 4 5 7 8 10 11 11 12 14 15 15 19 18 18 18 16 10 10 13 13 14 15 16 13 13 14 14 14 16 17 18 22 23 24 25 27 29 28 27 24 22 16
9 8 6 4 5 7 8 12 15 15 14 14 16 15 14 14 13 13 13 15 16 17 16 16 17 15 16 16 18 20 22 24 25 26 29 29 28 27 28 28 27 23 20
13 11 9 8 7 7 9 12 14 17 21 21 20 20 20 19 18 19 19 20 20 20 20 19 20 19 21 22 24 24 24 25 27 29 31 32 32 32 32 30 28 26 26
18 16 15 12 11 10 10 12 13 15 18 22 26 25 25 26 26 25 26 26 25 25 25 25 24 23 25 26 27 29 30 31 32 33 34 37 38 37 36 35 34 33 32
21 21 21 19 17 17 16 16 15 18 20 23 25 30 31 29 25 29 28 27 25 25 30 33 32 30 30 30 32 33 36 38 39 40 40 40 41 43 43 42 41 39 38
29 28 26 25 25 25 25 24 22 21 24 25 27 29 30 28 32 34 33 33 33 35 38 39 36 34 33 34 36 39 41 43 43 43 44 44 46 47 49 49 48 47 46
33 31 31 33 32 32 31 32 32 31 33 34 33 32 31 29 31 35 38 40 41 44 44 43 41 39 37 37 38 39 39 40 44 48 51 51 52 55 57 59 57 56 55
31 31 33 34 35 35 35 36 38 39 43 43 41 42 42 40 38 38 41 46 50 52 48 44 44 43 42 41 41 41 40 42 45 48 52 53 53 55 58 59 59 58 58
27 28 27 30 32 34 35 38 41 44 47 49 47 53 49 49 50 51 52 58 58 57 52 48 44 43 41 43 44 44 46 47 49 51 51 53 53 55 58 59 59 59 60
21 24 27 29 32 37 40 42 46 50 53 53 52 50 47 53 63 64 64 65 66 64 59 55 50 46 43 44 45 47 49 52 54 56 57 57 55 56 60 60 60 61 61
17 20 25 31 34 37 43 47 49 53 55 56 54 49 48 54 60 63 64 67 67 67 65 61 58 56 53 51 50 51 53 53 54 55 56 56 59 61 61 63 63 63 63
27 40 46 50 45 46 47 49 50 52 53 52 52 48 48 55 55 56 59 61 61 62 63 63 63 62 61 59 58 58 58 58 57 56 57 57 58 61 64 64 65 66 68
35 42 47 50 50 49 44 40 41 44 46 46 46 46 44 48 50 48 48 50 52 55 56 57 58 60 59 59 59 62 65 65 61 59 60 60 60 62 62 64 63 65 66
55 45 43 43 47 47 49 49 47 44 44 42 40 40 41 42 42 42 42 42 46 48 50 51 52 53 52 55 56 56 59 61 61 61 62 65 65 63 64 66 66 64 63
40 40 40 42 42 42 43 41 39 37 36 35 33 34 34 36 37 38 40 41 41 42 43 46 48 49 48 50 52 52 52 53 53 53 54 58 63 65 66 65 65 66 67
37 37 37 37 35 31 28 26 26 26 25 26 26 25 25 25 25 25 26 29 31 32 32 33 35 36 38 39 39 41 42 42 45 43 43 48 51 54 57 61 65 68 68
Wind_Direction_500mb
29 27 27 32 359 16 186 182 189 196 182 176 175 175 227 198 196 195 188 195 206 207 190 158 239 226 208 231 245 245 231 236 244 215 215 199 200 218 209 132 106 69 58
29 23 27 39 36 6 42 163 181 196 184 161 171 155 162 141 175 198 210 209 206 192 183 212 217 225 238 241 251 235 238 236 237 218 187 188 191 192 167 153 118 91 71
37 33 32 42 31 42 49 129 166 184 180 173 154 157 160 144 145 141 149 148 172 190 218 226 236 242 256 239 187 191 215 222 224 215 209 202 197 178 172 161 137 108 81
57 48 52 59 49 50 65 83 144 162 171 169 164 158 163 160 164 171 177 189 221 225 222 218 213 195 189 181 217 227 212 210 213 218 216 207 190 184 177 163 152 127 106
70 54 55 67 67 65 65 80 104 120 140 155 157 153 152 158 155 165 172 189 190 172 168 165 167 174 196 203 217 240 222 224 215 225 224 200 194 185 180 173 164 143 131
80 66 59 79 78 74 80 91 100 107 118 127 136 144 151 151 149 164 149 146 149 145 160 163 172 194 217 218 209 206 207 228 230 220 211 194 185 181 185 178 173 162 129
111 100 84 79 102 91 90 98 101 109 118 126 134 142 150 153 152 145 138 144 150 154 169 181 166 174 196 199 221 220 224 219 210 201 193 179 180 176 188 183 181 192 172
116 107 118 105 102 114 110 105 113 116 128 133 140 141 145 147 148 150 164 162 178 195 174 156 179 198 218 238 242 239 225 200 187 184 174 170 172 176 174 176 187 184 170
129 111 127 145 128 125 124 136 133 133 141 140 143 145 156 158 145 155 162 159 175 174 194 236 233 237 249 247 223 219 211 189 179 177 172 168 173 172 169 176 183 180 187
152 125 120 131 160 157 147 146 147 158 168 177 172 182 179 161 178 189 186 201 203 222 227 237 233 242 237 229 218 203 190 182 182 181 174 176 179 176 177 175 185 190 196
192 162 146 135 153 175 192 189 179 179 177 182 189 202 203 196 201 228 229 224 226 241 251 241 243 248 235 221 210 201 192 187 190 184 187 190 189 189 191 189 189 198 199
224 232 229 213 199 184 194 210 214 213 204 197 197 203 212 222 223 227 240 242 246 254 254 251 251 240 223 220 217 206 198 195 196 198 202 204 203 204 204 203 207 208 213
227 230 236 247 244 242 234 219 222 229 230 228 230 229 229 236 239 244 252 254 255 259 261 262 258 251 230 218 214 215 212 213 215 216 216 218 216 214 213 213 214 217 221
230 238 243 239 248 255 257 263 255 240 240 241 242 246 247 247 252 258 256 258 254 255 259 257 255 248 239 233 227 224 222 220 220 221 226 229 230 228 227 226 225 226 230
243 244 251 254 256 257 256 258 264 266 263 257 252 250 251 251 250 248 249 251 251 252 255 257 262 261 253 247 242 237 234 231 229 228 229 232 236 238 236 235 236 237 239
254 255 260 263 265 267 268 267 266 263 270 271 267 266 265 264 260 259 257 256 258 256 254 257 260 259 255 256 253 247 243 243 241 240 239 238 239 243 245 243 245 247 247
254 258 262 263 265 267 269 270 270 270 265 265 268 271 270 267 267 270 269 267 262 259 257 261 263 263 263 262 262 262 260 257 253 249 245 242 241 241 242 243 245 246 248
254 254 257 261 264 267 271 275 276 271 268 268 267 266 264 263 261 258 261 264 265 267 270 268 268 266 264 263 261 262 262 261 259 256 256 256 254 254 253 253 255 258 258
247 255 258 259 261 264 267 272 276 279 279 278 270 266 266 266 264 259 256 258 264 267 271 272 273 273 272 272 272 269 268 264 262 261 259 258 255 255 256 256 257 257 257
247 247 256 267 271 270 270 274 279 282 282 281 275 271 269 265 261 261 261 263 265 267 270 272 275 275 274 273 271 270 268 267 266 265 264 264 263 261 260 260 259 259 259
254 260 266 273 276 279 280 279 281 281 280 278 275 274 270 263 262 262 263 263 265 268 271 272 273 271 268 266 266 265 264 265 266 267 267 266 265 263 262 262 262 261 260
267 279 281 280 281 286 281 280 282 282 281 280 279 276 273 268 264 264 265 265 266 266 267 268 268 267 266 264 262 262 263 263 262 263 265 266 265 265 265 261 260 260 260
270 272 272 267 266 271 281 286 287 284 279 277 278 277 274 272 272 270 269 269 268 267 266 265 267 268 267 265 260 258 259 261 262 261 262 262 264 265 265 265 265 263 262
266 265 267 268 269 273 276 279 281 287 285 277 272 270 271 272 272 273 271 267 265 266 267 268 268 267 266 266 265 265 264 263 262 261 260 260 262 261 263 265 264 265 266
265 269 276 280 281 282 281 279 281 279 280 282 279 276 275 274 274 273 271 272 271 269 269 271 273 273 272 271 272 271 270 267 264 261 259 260 260 259 261 264 265 267 268
277 277 276 277 278 281 289 290 290 288 288 291 293 292 288 286 285 285 283 282 281 282 281 279 278 277 274 273 272 270 268 267 266 264 262 262 262 263 265 266 267 268 270
Wind_Speed_850mb
13 12 12 11 7 3 4 7 9 12 14 29 21 11 6 23 38 36 29 31 30 35 22 17 12 21 33 29 25 17 16 20 16 15 14 16 17 12 4 6 6 8 11
14 15 14 13 9 7 2 5 11 15 16 25 29 23 17 26 26 36 36 33 14 16 20 20 14 21 15 22 18 14 14 16 16 16 21 24 21 15 13 11 10 9 13
14 16 17 19 17 12 6 4 11 17 19 20 27 29 24 29 29 26 20 18 31 26 21 19 17 21 19 19 8 9 14 12 12 10 11 21 21 20 17 17 13 11 13
12 15 16 21 19 17 14 11 14 19 20 21 25 25 26 25 22 18 17 17 17 18 21 20 15 11 12 10 11 12 12 16 15 14 13 19 23 25 24 18 15 14 12
12 15 15 20 23 23 22 21 24 22 23 25 25 25 23 22 20 17 17 16 14 13 15 15 14 11 13 10 6 6 8 12 15 15 16 21 26 28 26 26 20 15 13
11 12 16 19 24 24 26 24 25 26 27 26 26 24 22 20 15 13 12 16 18 17 13 14 13 12 11 7 6 7 10 11 14 15 18 22 25 29 26 25 21 20 14
10 9 12 15 24 24 24 26 27 26 28 29 28 26 24 19 17 22 21 16 15 13 10 9 7 8 8 5 7 9 11 12 13 14 14 17 20 19 23 25 25 14 9
8 10 10 13 13 21 22 22 22 24 25 25 23 25 24 21 23 19 16 16 14 11 9 7 5 6 8 7 10 12 13 14 14 14 19 20 23 25 24 20 19 18 17
7 7 8 9 11 13 16 17 18 19 17 19 20 19 18 19 15 11 16 16 15 12 7 6 10 13 13 13 11 12 12 14 18 22 24 23 26 26 24 23 23 23 19
7 7 7 8 10 11 12 13 14 16 18 18 18 14 12 15 12 14 13 18 16 14 11 10 12 13 14 14 14 14 14 14 19 24 25 25 26 24 22 24 20 19 14
6 4 5 7 8 10 11 11 12 14 15 15 19 18 18 18 16 10 10 13 13 14 15 16 13 13 14 14 14 16 17 18 22 23 24 25 27 29 28 27 24 22 16
9 8 6 4 5 7 8 12 15 15 14 14 16 15 14 14 13 13 13 15 16 17 16 16 17 15 16 16 18 20 22 24 25 26 29 29 28 27 28 28 27 23 20
13 11 9 8 7 7 9 12 14 17 21 21 20 20 20 19 18 19 19 20 20 20 20 19 20 19 21 22 24 24 24 25 27 29 31 32 32 32 32 30 28 26 26
18 16 15 12 11 10 10 12 13 15 18 22 26 25 25 26 26 25 26 26 25 25 25 25 24 23 25 26 27 29 30 31 32 33 34 37 38 37 36 35 34 33 32
21 21 21 19 17 17 16 16 15 18 20 23 25 30 31 29 25 29 28 27 25 25 30 33 32 30 30 30 32 33 36 38 39 40 40 40 41 43 43 42 41 39 38
29 28 26 25 25 25 25 24 22 21 24 25 27 29 30 28 32 34 33 33 33 35 38 39 36 34 33 34 36 39 41 43 43 43 44 44 46 47 49 49 48 47 46
33 31 31 33 32 32 31 32 32 31 33 34 33 32 31 29 31 35 38 40 41 44 44 43 41 39 37 37 38 39 39 40 44 48 51 51 52 55 57 59 57 56 55
31 31 33 34 35 35 35 36 38 39 43 43 41 42 42 40 38 38 41 46 50 52 48 44 44 43 42 41 41 41 40 42 45 48 52 53 53 55 58 59 59 58 58
27 28 27 30 32 34 35 38 41 44 47 49 47 53 49 49 50 51 52 58 58 57 52 48 44 43 41 43 44 44 46 47 49 51 51 53 53 55 58 59 59 59 60
21 24 27 29 32 37 40 42 46 50 53 53 52 50 47 53 63 64 64 65 66 64 59 55 50 46 43 44 45 47 49 52 54 56 57 57 55 56 60 60 60 61 61
17 20 25 31 34 37 43 47 49 53 55 56 54 49 48 54 60 63 64 67 67 67 65 61 58 56 53 51 50 51 53 53 54 55 56 56 59 61 61 63 63 63 63
27 40 46 50 45 46 47 49 50 52 53 52 52 48 48 55 55 56 59 61 61 62 63 63 63 62 61 59 58 58 58 58 57 56 57 57 58 61 64 64 65 66 68
35 42 47 50 50 49 44 40 41 44 46 46 46 46 44 48 50 48 48 50 52 55 56 57 58 60 59 59 59 62 65 65 61 59 60 60 60 62 62 64 63 65 66
55 45 43 43 47 47 49 49 47 44 44 42 40 40 41 42 42 42 42 42 46 48 50 51 52 53 52 55 56 56 59 61 61 61 62 65 65 63 64 66 66 64 63
40 40 40 42 42 42 43 41 39 37 36 35 33 34 34 36 37 38 40 41 41 42 43 46 48 49 48 50 52 52 52 53 53 53 54 58 63 65 66 65 65 66 67
37 37 37 37 35 31 28 26 26 26 25 26 26 25 25 25 25 25 26 29 31 32 32 33 35 36 38 39 39 41 42 42 45 43 43 48 51 54 57 61 65 68 68
Wind_Direction_850mb
29 27 27 32 359 16 186 182 189 196 182 176 175 175 227 198 196 195 188 195 206 207 190 158 239 226 208 231 245 245 231 236 244 215 215 199 200 218 209 132 106 69 58
29 23 27 39 36 6 42 163 181 196 184 161 171 155 162 141 175 198 210 209 206 192 183 212 217 225 238 241 251 235 238 236 237 218 187 188 191 192 167 153 118 91 71
37 33 32 42 31 42 49 129 166 184 180 173 154 157 160 144 145 141 149 148 172 190 218 226 236 242 256 239 187 191 215 222 224 215 209 202 197 178 172 161 137 108 81
57 48 52 59 49 50 65 83 144 162 171 169 164 158 163 160 164 171 177 189 221 225 222 218 213 195 189 181 217 227 212 210 213 218 216 207 190 184 177 163 152 127 106
70 54 55 67 67 65 65 80 104 120 140 155 157 153 152 158 155 165 172 189 190 172 168 165 167 174 196 203 217 240 222 224 215 225 224 200 194 185 180 173 164 143 131
80 66 59 79 78 74 80 91 100 107 118 127 136 144 151 151 149 164 149 146 149 145 160 163 172 194 217 218 209 206 207 228 230 220 211 194 185 181 185 178 173 162 129
111 100 84 79 102 91 90 98 101 109 118 126 134 142 150 153 152 145 138 144 150 154 169 181 166 174 196 199 221 220 224 219 210 201 193 179 180 176 188 183 181 192 172
116 107 118 105 102 114 110 105 113 116 128 133 140 141 145 147 148 150 164 162 178 195 174 156 179 198 218 238 242 239 225 200 187 184 174 170 172 176 174 176 187 184 170
129 111 127 145 128 125 124 136 133 133 141 140 143 145 156 158 145 155 162 159 175 174 194 236 233 237 249 247 223 219 211 189 179 177 172 168 173 172 169 176 183 180 187
152 125 120 131 160 157 147 146 147 158 168 177 172 182 179 161 178 189 186 201 203 222 227 237 233 242 237 229 218 203 190 182 182 181 174 176 179 176 177 175 185 190 196
192 162 146 135 153 175 192 189 179 179 177 182 189 202 203 196 201 228 229 224 226 241 251 241 243 248 235 221 210 201 192 187 190 184 187 190 189 189 191 189 189 198 199
224 232 229 213 199 184 194 210 214 213 204 197 197 203 212 222 223 227 240 242 246 254 254 251 251 240 223 220 217 206 198 195 196 198 202 204 203 204 204 203 207 208 213
227 230 236 247 244 242 234 219 222 229 230 228 230 229 229 236 239 244 252 254 255 259 261 262 258 251 230 218 214 215 212 213 215 216 216 218 216 214 213 213 214 217 221
230 238 243 239 248 255 257 263 255 240 240 241 242 246 247 247 252 258 256 258 254 255 259 257 255 248 239 233 227 224 222 220 220 221 226 229 230 228 227 226 225 226 230
243 244 251 254 256 257 256 258 264 266 263 257 252 250 251 251 250 248 249 251 251 252 255 257 262 261 253 247 242 237 234 231 229 228 229 232 236 238 236 235 236 237 239
254 255 260 263 265 267 268 267 266 263 270 271 267 266 265 264 260 259 257 256 258 256 254 257 260 259 255 256 253 247 243 243 241 240 239 238 239 243 245 243 245 247 247
254 258 262 263 265 267 269 270 270 270 265 265 268 271 270 267 267 270 269 267 262 259 257 261 263 263 263 262 262 262 260 257 253 249 245 242 241 241 242 243 245 246 248
254 254 257 261 264 267 271 275 276 271 268 268 267 266 264 263 261 258 261 264 265 267 270 268 268 266 264 263 261 262 262 261 259 256 256 256 254 254 253 253 255 258 258
247 255 258 259 261 264 267 272 276 279 279 278 270 266 266 266 264 259 256 258 264 267 271 272 273 273 272 272 272 269 268 264 262 261 259 258 255 255 256 256 257 257 257
247 247 256 267 271 270 270 274 279 282 282 281 275 271 269 265 261 261 261 263 265 267 270 272 275 275 274 273 271 270 268 267 266 265 264 264 263 261 260 260 259 259 259
254 260 266 273 276 279 280 279 281 281 280 278 275 274 270 263 262 262 263 263 265 268 271 272 273 271 268 266 266 265 264 265 266 267 267 266 265 263 262 262 262 261 260
267 279 281 280 281 286 281 280 282 282 281 280 279 276 273 268 264 264 265 265 266 266 267 268 268 267 266 264 262 262 263 263 262 263 265 266 265 265 265 261 260 260 260
270 272 272 267 266 271 281 286 287 284 279 277 278 277 274 272 272 270 269 269 268 267 266 265 267 268 267 265 260 258 259 261 262 261 262 262 264 265 265 265 265 263 262
266 265 267 268 269 273 276 279 281 287 285 277 272 270 271 272 272 273 271 267 265 266 267 268 268 267 266 266 265 265 264 263 262 261 260 260 262 261 263 265 264 265 266
265 269 276 280 281 282 281 279 281 279 280 282 279 276 275 274 274 273 271 272 271 269 269 271 273 273 272 271 272 271 270 267 264 261 259 260 260 259 261 264 265 267 268
277 277 276 277 278 281 289 290 290 288 288 291 293 292 288 286 285 285 283 282 281 282 281 279 278 277 274 273 272 270 268 267 266 264 262 262 262 263 265 266 267 268 270